Waarnemingen

Advertentie
Mijn weer
Koblenz/Falkensteinkaserne, Duitsland (10516): temperatuur & dauwpunt: 23.03.2017 21:00:00 - 29.03.2017 21:00:00 (CEST)Koblenz/Falkensteinkaserne, Duitsland (10516): windsnelheid: 23.03.2017 21:00:00 - 29.03.2017 21:00:00 (CEST)Koblenz/Falkensteinkaserne, Duitsland (10516): windrichting: 23.03.2017 21:00:00 - 29.03.2017 21:00:00 (CEST)Koblenz/Falkensteinkaserne, Duitsland (10516): luchtdruk: 23.03.2017 21:00:00 - 29.03.2017 21:00:00 (CEST)Koblenz/Falkensteinkaserne, Duitsland (10516): zicht: 23.03.2017 21:00:00 - 29.03.2017 21:00:00 (CEST)
Datum & Tijd tt [°C] td [°C] ff [km/u] ff [kn] dd ppp [hPa] vv [km]
29.03.2017 21:00:00 - - - - - - -
29.03.2017 20:00:00 15,8 6,4 7 4 W 1025,8 30
29.03.2017 19:00:00 16,7 6,6 11 6 W 1025,0 30
29.03.2017 18:00:00 17,0 6,9 11 6 W 1024,7 30
29.03.2017 17:00:00 17,3 6,5 11 6 W 1024,8 30
29.03.2017 16:00:00 17,4 5,6 11 6 W 1025,3 30
29.03.2017 15:00:00 17,8 5,2 11 6 W 1025,4 30
29.03.2017 14:00:00 17,2 3,5 14 8 W 1026,0 30
29.03.2017 13:00:00 16,6 5,5 11 6 WZW 1026,4 30
29.03.2017 12:00:00 15,3 6,1 11 6 ZZW 1026,6 30
29.03.2017 11:00:00 13,8 6,4 11 6 ZZW 1026,7 30
29.03.2017 10:00:00 12,0 6,3 7 4 ZW 1026,9 30
29.03.2017 09:00:00 10,7 5,9 4 2 Z 1026,5 30
29.03.2017 08:00:00 9,5 5,6 7 4 N 1026,1 30
29.03.2017 07:00:00 9,2 5,5 7 4 N 1025,8 30
29.03.2017 06:00:00 9,2 5,3 4 2 ZO 1025,9 -
29.03.2017 05:00:00 10,2 5,5 4 2 ZZO 1025,6 -
29.03.2017 04:00:00 10,3 5,3 4 2 N 1025,3 -
29.03.2017 03:00:00 12,3 5,6 7 4 ZW 1025,3 -
29.03.2017 02:00:00 11,6 5,0 4 2 N 1025,1 -
29.03.2017 01:00:00 12,7 5,1 7 4 N 1024,6 -
29.03.2017 00:00:00 13,0 5,2 4 2 N 1024,2 -
28.03.2017 23:00:00 14,5 5,2 4 2 WNW 1023,8 -
28.03.2017 22:00:00 15,4 5,1 7 4 ZW 1022,9 -
28.03.2017 21:00:00 17,4 4,3 7 4 WZW 1022,1 40
28.03.2017 20:00:00 18,7 4,0 11 6 WZW 1021,3 40
28.03.2017 19:00:00 20,2 4,2 11 6 WZW 1020,9 40
28.03.2017 18:00:00 20,4 4,2 11 6 WZW 1020,6 40
28.03.2017 17:00:00 21,0 4,1 11 6 ZW 1020,7 40
28.03.2017 16:00:00 21,2 3,4 14 8 ZW 1020,8 40
28.03.2017 15:00:00 20,7 4,1 14 8 ZZW 1021,1 40
28.03.2017 14:00:00 19,8 4,3 14 8 ZZW 1021,8 40
28.03.2017 13:00:00 18,3 4,0 7 4 N 1022,4 40
28.03.2017 12:00:00 14,1 1,7 4 2 N 1022,9 40
28.03.2017 11:00:00 10,2 0,0 4 2 N 1023,2 40
28.03.2017 10:00:00 7,9 -0,3 4 2 ZZW 1023,3 40
28.03.2017 09:00:00 5,2 -0,2 4 2 N 1023,5 30
28.03.2017 08:00:00 3,2 0,0 4 2 N 1023,5 30
28.03.2017 07:00:00 3,0 0,3 4 2 N 1023,1 30
28.03.2017 06:00:00 3,7 0,4 4 2 N 1022,9 -
28.03.2017 05:00:00 3,8 0,4 4 2 N 1022,8 -
28.03.2017 04:00:00 4,6 0,6 4 2 N 1023,0 -
28.03.2017 03:00:00 4,8 0,5 4 2 N 1023,5 -
28.03.2017 02:00:00 6,0 0,2 4 2 N 1023,2 -
28.03.2017 01:00:00 7,1 0,2 4 2 ZZW 1022,9 -
28.03.2017 00:00:00 9,0 -0,4 7 4 ZZO 1022,7 -
27.03.2017 23:00:00 9,5 -0,7 7 4 N 1022,8 -
27.03.2017 22:00:00 11,4 -2,0 7 4 N 1022,4 -
27.03.2017 21:00:00 13,5 -3,9 7 4 OZO 1021,8 40
27.03.2017 20:00:00 16,1 -5,1 7 4 N 1021,4 40
27.03.2017 19:00:00 17,8 -5,4 7 4 ZO 1021,2 40
27.03.2017 18:00:00 18,3 -5,9 11 6 O 1021,3 40
27.03.2017 17:00:00 18,2 -5,8 11 6 O 1021,7 40
27.03.2017 16:00:00 17,8 -5,1 11 6 OZO 1022,4 40
27.03.2017 15:00:00 16,6 -6,1 11 6 O 1023,2 30
27.03.2017 14:00:00 15,9 -6,5 11 6 OZO 1024,1 30
27.03.2017 13:00:00 14,6 -4,4 14 8 OZO 1024,6 30
27.03.2017 12:00:00 12,8 -2,8 11 6 ZO 1025,0 30
27.03.2017 11:00:00 10,8 -0,9 4 2 NNO 1025,6 30
27.03.2017 10:00:00 8,0 0,5 4 2 N 1025,9 30
27.03.2017 09:00:00 5,2 0,9 4 2 N 1026,0 30
27.03.2017 08:00:00 3,4 0,8 4 2 N 1025,6 25
27.03.2017 07:00:00 3,9 1,0 11 6 ZZO 1025,3 25
27.03.2017 06:00:00 4,3 1,3 7 4 N 1024,9 -
27.03.2017 05:00:00 4,5 1,4 7 4 N 1024,7 -
27.03.2017 04:00:00 4,9 1,7 4 2 ZZO 1024,8 -
27.03.2017 03:00:00 5,5 2,4 4 2 Z 1024,9 -
27.03.2017 02:00:00 6,6 2,3 7 4 ZZO 1025,0 -
27.03.2017 01:00:00 7,5 2,6 7 4 N 1024,8 -
27.03.2017 00:00:00 8,7 1,9 7 4 N 1024,8 -
26.03.2017 23:00:00 9,2 1,6 4 2 Z 1024,8 -
26.03.2017 22:00:00 11,8 0,2 7 4 N 1024,2 -
26.03.2017 21:00:00 11,8 0,2 4 2 NW 1023,6 -
26.03.2017 20:00:00 13,8 -0,4 7 4 ONO 1023,1 -
26.03.2017 19:00:00 15,1 -1,8 7 4 O 1022,7 -
26.03.2017 18:00:00 16,0 -2,0 11 6 O 1022,3 -
26.03.2017 17:00:00 16,2 -3,6 11 6 O 1022,4 -
26.03.2017 16:00:00 15,9 -3,2 11 6 ONO 1022,5 -
26.03.2017 15:00:00 15,3 -1,8 7 4 O 1022,8 -
26.03.2017 14:00:00 14,0 -1,6 7 4 ONO 1023,6 -
26.03.2017 13:00:00 13,2 -0,7 7 4 N 1024,2 -
26.03.2017 12:00:00 11,7 -0,6 7 4 NNW 1024,7 -
26.03.2017 11:00:00 10,0 -1,1 7 4 N 1025,1 -
26.03.2017 10:00:00 8,4 -1,3 4 2 ZW 1025,1 -
26.03.2017 09:00:00 5,4 0,1 7 4 N 1024,6 -
26.03.2017 08:00:00 4,5 -0,2 7 4 ZW 1024,5 -
26.03.2017 07:00:00 3,9 -0,8 4 2 ZO 1024,2 -
26.03.2017 06:00:00 4,8 -1,8 7 4 N 1023,8 -
26.03.2017 05:00:00 6,2 -1,8 4 2 NW 1023,5 -
26.03.2017 04:00:00 6,1 -1,8 7 4 N 1023,2 -
26.03.2017 03:00:00 6,0 -2,0 4 2 NNW 1023,5 -
26.03.2017 02:00:00 6,5 -2,2 7 4 NNW 1023,8 -
26.03.2017 01:00:00 8,9 -3,4 4 2 ONO 1023,8 -
26.03.2017 00:00:00 10,0 -3,3 7 4 ZO 1023,8 -
25.03.2017 23:00:00 10,9 -3,6 4 2 N 1023,9 -
25.03.2017 22:00:00 12,7 -4,8 7 4 NNO 1023,8 -
25.03.2017 21:00:00 13,7 -5,4 7 4 ONO 1023,4 -
25.03.2017 20:00:00 15,0 -6,0 11 6 ONO 1023,0 -
25.03.2017 19:00:00 16,1 -6,1 11 6 ONO 1022,8 -
25.03.2017 18:00:00 16,0 -4,0 11 6 O 1023,3 -
25.03.2017 17:00:00 15,7 -6,4 14 8 ONO 1024,2 -
25.03.2017 16:00:00 15,7 -4,8 14 8 O 1025,1 -
25.03.2017 15:00:00 15,5 -4,1 14 8 ONO 1026,0 -
25.03.2017 14:00:00 14,8 -2,9 14 8 ONO 1027,0 -
25.03.2017 13:00:00 13,6 -3,5 18 10 O 1027,8 -
25.03.2017 12:00:00 12,3 0,2 11 6 O 1028,6 -
25.03.2017 11:00:00 10,3 0,0 7 4 O 1029,4 -
25.03.2017 10:00:00 7,6 0,4 4 2 N 1029,9 -
25.03.2017 09:00:00 6,9 -0,1 4 2 ONO 1030,0 -
25.03.2017 08:00:00 3,8 0,3 4 2 NW 1030,2 -
25.03.2017 07:00:00 6,2 0,0 7 4 ONO 1029,9 -
25.03.2017 06:00:00 6,9 0,3 11 6 ONO 1029,9 -
25.03.2017 05:00:00 7,0 0,6 7 4 ONO 1029,9 -
25.03.2017 04:00:00 7,2 0,9 11 6 ONO 1030,2 -
25.03.2017 03:00:00 7,4 1,1 7 4 O 1030,5 -
25.03.2017 02:00:00 8,0 1,2 7 4 NO 1030,8 -
25.03.2017 01:00:00 8,2 1,5 7 4 O 1030,8 -
25.03.2017 00:00:00 9,0 1,5 7 4 ONO 1030,7 -
24.03.2017 23:00:00 10,0 1,6 11 6 O 1030,1 -
24.03.2017 22:00:00 10,2 1,8 7 4 N 1029,8 15
24.03.2017 21:00:00 11,7 1,6 7 4 ONO 1029,5 15
24.03.2017 20:00:00 12,6 1,5 7 4 O 1028,4 15
24.03.2017 19:00:00 13,7 1,6 11 6 ONO 1027,4 15
24.03.2017 18:00:00 14,3 2,1 11 6 ONO 1027,2 15
24.03.2017 17:00:00 13,8 2,5 11 6 O 1027,4 15
24.03.2017 16:00:00 13,3 2,4 11 6 O 1027,4 15
24.03.2017 15:00:00 11,7 2,2 11 6 O 1028,0 15
24.03.2017 14:00:00 10,9 2,5 14 8 O 1028,6 15
24.03.2017 13:00:00 9,9 2,7 11 6 O 1029,0 15
24.03.2017 12:00:00 9,3 2,3 14 8 O 1028,4 15
24.03.2017 11:00:00 8,7 2,2 14 8 O 1027,6 12
24.03.2017 10:00:00 8,3 2,5 11 6 O 1026,6 10
24.03.2017 09:00:00 7,9 2,6 14 8 ONO 1024,9 9
24.03.2017 08:00:00 8,0 2,9 14 8 O 1025,3 8
24.03.2017 07:00:00 8,3 3,1 14 8 O 1024,9 -
24.03.2017 06:00:00 8,5 3,4 7 4 ONO 1024,3 -
24.03.2017 05:00:00 8,5 4,0 4 2 ONO 1024,4 -
24.03.2017 04:00:00 8,3 3,8 14 8 ONO 1023,5 -
24.03.2017 03:00:00 8,6 4,2 11 6 O 1023,1 -
24.03.2017 02:00:00 8,7 4,2 7 4 O 1022,3 -
24.03.2017 01:00:00 9,7 4,5 11 6 O 1020,9 -
24.03.2017 00:00:00 9,4 4,7 4 2 ONO 1019,9 -
23.03.2017 23:00:00 9,6 3,9 4 2 NNO 1019,1 -
23.03.2017 22:00:00 11,3 3,2 7 4 N 1018,3 25
23.03.2017 21:00:00 - - - - - - -

tt = temperatuur
td = dauwpunt
ff = windsnelheid
dd = windrichting
ppp = luchtdruk
vv = zicht

Weerstations in de omgeving